Home   Weather   Stanley   Past weeks

Flag for Falkland Islands Past Weather in Stanley, Falkland Islands — Yesterday and Last 2 Weeks

Now
39 °F

Partly sunny.


Feels Like: 28 °F
Forecast: 37 / 41 °F
Wind: 24 mph from Northwest

Location: Mount Pleasant Airport

Current Time: Jun 27, 2017 at 4:18:09 pm

Latest Report: Jun 27, 2017 at 3:50 pm


Visibility: N/A

Pressure: 29.89 "Hg

Humidity: 75%

Dew Point: 32 °F

Location of StanleyLocation

Past Weather in Stanley — Graph

°F

Stanley Temperature Yesterday

Maximum temperature yesterday: 36 °F (at 9:50 am)
Minimum temperature yesterday: 32 °F (at 12:50 am)
Average temperature yesterday: 34 °F

High & Low Weather Summary for the Past Weeks

 TemperatureHumidityPressure
High45 °F (Jun 22, 11:50 am)100% (Jun 12, 2:50 pm)30.30 "Hg (Jun 12, 2:50 pm)
Low23 °F (Jun 17, 4:50 am)65% (Jun 14, 4:50 am)28.77 "Hg (Jun 22, 1:50 pm)
Average34 °F88%29.61 "Hg
* Reported Jun 12 2:50 pm — Jun 27 2:50 pm, Stanley. Weather by CustomWeather, © 2017

Note: Actual official high and low records may vary slightly from our data, if they occured in-between our weather recording intervals... More about our weather records

Advertising

Stanley Weather History for the Previous 24 Hours

Scroll right to see more
 ConditionsComfort  
Time TempWeatherWind HumidityBarometerVisibility
2:50 pm
Tue, Jun 27
39 °FBroken clouds.25 mph75%29.89 "HgN/A
1:50 pm39 °FPartly sunny.22 mph81%29.95 "HgN/A
12:50 pm39 °FPartly sunny.21 mph81%29.98 "HgN/A
11:50 am39 °FPartly sunny.16 mph81%30.01 "HgN/A
10:50 am39 °FPartly sunny.22 mph75%30.04 "HgN/A
9:50 am37 °FPassing clouds.17 mph81%30.04 "HgN/A
8:50 am37 °FPassing clouds.15 mph81%30.04 "HgN/A
7:50 am37 °FPassing clouds.13 mph81%30.04 "HgN/A
6:50 am36 °FPassing clouds.15 mph87%30.04 "HgN/A
5:50 am36 °FPassing clouds.15 mph81%30.04 "HgN/A
4:50 am32 °FPassing clouds.14 mph87%30.04 "HgN/A
3:50 am32 °FClear.13 mph87%30.04 "Hg10 mi
2:50 am32 °FClear.13 mph87%30.04 "Hg10 mi
1:50 am32 °FClear.15 mph93%30.04 "Hg10 mi
12:50 am34 °FClear.15 mph93%30.04 "Hg10 mi
11:50 pm
Mon, Jun 26
32 °FClear.14 mph100%30.04 "Hg10 mi
10:50 pm34 °FClear.14 mph93%30.04 "Hg10 mi
9:50 pm32 °FPassing clouds.12 mph93%30.04 "HgN/A
8:50 pm32 °FClear.12 mph93%30.04 "Hg10 mi
7:50 pm34 °FPassing clouds.13 mph93%30.01 "HgN/A
6:50 pm34 °FPassing clouds.14 mph93%30.01 "HgN/A
5:50 pm36 °FPassing clouds.15 mph87%29.98 "HgN/A
4:50 pm36 °FSprinkles. Partly sunny.14 mph87%29.98 "HgN/A
Weather by CustomWeather, © 2017

See weather overviewHow to use our weather pages